2016-03-16 00:01:37 r, 18.82m,0000000003Hz,0000184363c,0000000.400s, 016.4C,00002191
2016-03-16 00:11:37 r, 18.83m,0000000002Hz,0000186142c,0000000.404s, 016.4C,00002191
2016-03-16 00:21:37 r, 18.91m,0000000002Hz,0000201327c,0000000.437s, 016.4C,00002191
2016-03-16 00:31:37 r, 18.87m,0000000002Hz,0000193931c,0000000.421s, 016.4C,00002191
2016-03-16 00:41:37 r, 19.02m,0000000002Hz,0000222357c,0000000.483s, 016.4C,00002191
2016-03-16 00:51:37 r, 19.11m,0000000002Hz,0000241994c,0000000.525s, 016.4C,00002191
2016-03-16 01:01:38 r, 19.10m,0000000002Hz,0000238964c,0000000.519s, 016.4C,00002191
2016-03-16 01:11:37 r, 19.25m,0000000001Hz,0000276362c,0000000.600s, 016.4C,00002191
2016-03-16 01:21:38 r, 19.34m,0000000002Hz,0000299429c,0000000.650s, 016.1C,00002191
2016-03-16 01:31:37 r, 19.33m,0000000002Hz,0000294789c,0000000.640s, 015.7C,00002191
2016-03-16 01:41:37 r, 19.20m,0000000001Hz,0000260053c,0000000.564s, 015.1C,00002191
2016-03-16 01:51:37 r, 20.10m,0000000000Hz,0000597205c,0000001.296s, 014.8C,00002191
2016-03-16 02:01:37 r, 20.22m,0000000000Hz,0000668282c,0000001.450s, 014.5C,00002191
2016-03-16 02:11:37 r, 20.12m,0000000001Hz,0000606730c,0000001.317s, 014.1C,00002191
2016-03-16 02:21:37 r, 19.86m,0000000001Hz,0000478931c,0000001.039s, 013.8C,00002191
2016-03-16 02:31:37 r, 19.86m,0000000001Hz,0000479035c,0000001.040s, 013.5C,00002191
2016-03-16 02:41:37 r, 19.69m,0000000001Hz,0000408797c,0000000.887s, 013.5C,00002191
2016-03-16 02:51:38 r, 19.95m,0000000000Hz,0000520340c,0000001.129s, 013.2C,00002191
2016-03-16 03:01:37 r, 20.14m,0000000001Hz,0000622155c,0000001.350s, 013.2C,00002191
2016-03-16 03:11:38 r, 20.43m,0000000000Hz,0000806332c,0000001.750s, 013.2C,00002191
2016-03-16 03:21:37 r, 20.43m,0000000001Hz,0000799400c,0000001.735s, 013.2C,00002191
2016-03-16 03:31:37 r, 20.33m,0000000001Hz,0000730309c,0000001.585s, 013.2C,00002191
2016-03-16 03:41:37 r, 20.16m,0000000001Hz,0000633786c,0000001.375s, 013.5C,00002191
2016-03-16 03:51:37 r, 20.30m,0000000000Hz,0000714171c,0000001.550s, 013.5C,00002191
2016-03-16 04:01:37 r, 20.20m,0000000001Hz,0000656957c,0000001.426s, 013.8C,00002191
2016-03-16 04:11:37 r, 20.22m,0000000000Hz,0000668940c,0000001.452s, 014.1C,00002191
2016-03-16 04:21:37 r, 20.10m,0000000001Hz,0000598055c,0000001.298s, 014.1C,00002191
2016-03-16 04:31:37 r, 20.14m,0000000001Hz,0000621121c,0000001.348s, 014.5C,00002191
2016-03-16 04:41:37 r, 20.45m,0000000001Hz,0000815903c,0000001.771s, 014.5C,00002191
2016-03-16 04:51:37 r, 20.50m,0000000001Hz,0000854185c,0000001.854s, 014.5C,00002191
2016-03-16 05:01:37 r, 20.29m,0000000000Hz,0000711495c,0000001.544s, 014.5C,00002191
2016-03-16 05:11:37 r, 20.10m,0000000001Hz,0000598203c,0000001.298s, 014.1C,00002191
2016-03-16 05:21:39 r, 20.15m,0000000001Hz,0000626140c,0000001.359s, 014.5C,00002191
2016-03-16 05:31:37 r, 20.03m,0000000001Hz,0000563647c,0000001.223s, 014.5C,00002191
2016-03-16 05:41:37 r, 20.24m,0000000001Hz,0000683380c,0000001.483s, 014.1C,00002191
2016-03-16 05:51:37 r, 20.10m,0000000001Hz,0000599815c,0000001.302s, 014.1C,00002191
2016-03-16 06:01:37 r, 20.11m,0000000001Hz,0000604173c,0000001.311s, 013.8C,00002191
2016-03-16 06:11:37 r, 19.95m,0000000001Hz,0000516433c,0000001.121s, 013.5C,00002191
2016-03-16 06:21:38 r, 19.66m,0000000001Hz,0000399139c,0000000.866s, 013.5C,00002191
2016-03-16 06:31:37 r, 19.06m,0000000002Hz,0000228521c,0000000.496s, 013.2C,00002191
2016-03-16 06:41:37 r, 17.94m,0000000005Hz,0000082131c,0000000.178s, 013.2C,00002191
2016-03-16 06:51:38 r, 16.40m,0000000023Hz,0000019918c,0000000.043s, 013.2C,00002191
2016-03-16 07:01:37 r, 14.44m,0000000142Hz,0000000000c,0000000.000s, 013.2C,00002191
2016-03-16 07:11:37 r, 12.32m,0000000995Hz,0000000000c,0000000.000s, 013.2C,00002191
2016-03-16 07:21:38 r, 10.29m,0000006472Hz,0000000000c,0000000.000s, 013.2C,00002191
2016-03-16 07:31:37 r, 08.70m,0000028057Hz,0000000000c,0000000.000s, 013.2C,00002191
2016-03-16 07:41:37 r, 07.63m,0000075218Hz,0000000000c,0000000.000s, 013.5C,00002191
2016-03-16 07:51:37 r, 06.78m,0000163876Hz,0000000000c,0000000.000s, 013.2C,00002191
2016-03-16 08:01:37 r, 06.42m,0000227902Hz,0000000000c,0000000.000s, 013.5C,00002191
2016-03-16 08:11:37 r, 00.00m,0000431287Hz,0000000000c,0000000.000s, 013.2C,00002191
2016-03-16 08:21:39 r, 00.00m,0000584660Hz,0000000000c,0000000.000s, 013.5C,00002191
2016-03-16 08:31:37 r, 00.00m,0000596432Hz,0000000000c,0000000.000s, 013.5C,00002191
2016-03-16 08:41:38 r, 00.00m,0000596491Hz,0000000000c,0000000.000s, 013.5C,00002191
2016-03-16 08:51:37 r, 00.00m,0000596477Hz,0000000000c,0000000.000s, 013.8C,00002191
2016-03-16 09:01:37 r, 00.00m,0000596437Hz,0000000000c,0000000.000s, 014.1C,00002191
2016-03-16 09:14:52 r, 00.00m,0000596387Hz,0000000000c,0000000.000s, 014.5C,00002191
2016-03-16 09:24:52 r, 00.00m,0000596438Hz,0000000000c,0000000.000s, 014.5C,00002191
2016-03-16 09:34:52 r, 00.00m,0000596420Hz,0000000000c,0000000.000s, 014.8C,00002191
2016-03-16 09:44:52 r, 00.00m,0000596443Hz,0000000000c,0000000.000s, 015.1C,00002191
2016-03-16 09:54:53 r, 00.00m,0000596406Hz,0000000000c,0000000.000s, 015.1C,00002191
2016-03-16 10:04:52 r, 00.00m,0000596426Hz,0000000000c,0000000.000s, 015.4C,00002191
2016-03-16 10:14:52 r, 00.00m,0000596320Hz,0000000000c,0000000.000s, 015.7C,00002191
2016-03-16 10:24:53 r, 00.00m,0000596374Hz,0000000000c,0000000.000s, 015.7C,00002191
2016-03-16 10:34:52 r, 00.00m,0000596253Hz,0000000000c,0000000.000s, 016.1C,00002191
2016-03-16 10:44:52 r, 00.00m,0000596307Hz,0000000000c,0000000.000s, 016.1C,00002191
2016-03-16 10:54:52 r, 00.00m,0000596304Hz,0000000000c,0000000.000s, 016.4C,00002191
2016-03-16 11:04:52 r, 00.00m,0000596230Hz,0000000000c,0000000.000s, 016.4C,00002191
2016-03-16 11:14:52 r, 00.00m,0000596238Hz,0000000000c,0000000.000s, 017.0C,00002191
2016-03-16 11:24:53 r, 00.00m,0000596197Hz,0000000000c,0000000.000s, 017.4C,00002191
2016-03-16 11:34:52 r, 00.00m,0000596201Hz,0000000000c,0000000.000s, 017.0C,00002191
2016-03-16 11:44:52 r, 00.00m,0000596243Hz,0000000000c,0000000.000s, 017.0C,00002191
2016-03-16 11:54:52 r, 00.00m,0000596237Hz,0000000000c,0000000.000s, 016.7C,00002191
2016-03-16 12:04:52 r, 00.00m,0000596218Hz,0000000000c,0000000.000s, 016.7C,00002191
2016-03-16 12:14:52 r, 00.00m,0000596293Hz,0000000000c,0000000.000s, 016.4C,00002191
2016-03-16 12:24:53 r, 00.00m,0000596220Hz,0000000000c,0000000.000s, 016.4C,00002191
2016-03-16 12:34:52 r, 00.00m,0000596235Hz,0000000000c,0000000.000s, 016.4C,00002191
2016-03-16 12:44:52 r, 00.00m,0000596240Hz,0000000000c,0000000.000s, 016.7C,00002191
2016-03-16 12:54:54 r, 00.00m,0000596227Hz,0000000000c,0000000.000s, 017.0C,00002191
2016-03-16 13:04:52 r, 00.00m,0000596030Hz,0000000000c,0000000.000s, 017.4C,00002191
2016-03-16 13:14:52 r, 00.00m,0000596014Hz,0000000000c,0000000.000s, 017.7C,00002191
2016-03-16 13:24:53 r, 00.00m,0000596039Hz,0000000000c,0000000.000s, 018.0C,00002191
2016-03-16 13:34:52 r, 00.00m,0000596068Hz,0000000000c,0000000.000s, 018.3C,00002191
2016-03-16 13:44:52 r, 00.00m,0000596007Hz,0000000000c,0000000.000s, 018.3C,00002191
2016-03-16 13:54:53 r, 00.00m,0000595958Hz,0000000000c,0000000.000s, 018.6C,00002191
2016-03-16 14:04:52 r, 00.00m,0000596009Hz,0000000000c,0000000.000s, 018.6C,00002191
2016-03-16 14:14:52 r, 00.00m,0000595899Hz,0000000000c,0000000.000s, 019.0C,00002191
2016-03-16 14:24:52 r, 00.00m,0000596023Hz,0000000000c,0000000.000s, 019.0C,00002191
2016-03-16 14:34:52 r, 00.00m,0000595919Hz,0000000000c,0000000.000s, 019.0C,00002191
2016-03-16 14:44:52 r, 00.00m,0000595903Hz,0000000000c,0000000.000s, 019.0C,00002191
2016-03-16 14:54:52 r, 00.00m,0000595879Hz,0000000000c,0000000.000s, 019.0C,00002191
2016-03-16 15:04:52 r, 00.00m,0000595986Hz,0000000000c,0000000.000s, 019.0C,00002191
2016-03-16 15:14:52 r, 00.00m,0000595939Hz,0000000000c,0000000.000s, 018.6C,00002191
2016-03-16 15:24:52 r, 00.00m,0000596097Hz,0000000000c,0000000.000s, 018.3C,00002191
2016-03-16 15:34:52 r, 00.00m,0000596111Hz,0000000000c,0000000.000s, 018.0C,00002191
2016-03-16 15:44:52 r, 00.00m,0000596154Hz,0000000000c,0000000.000s, 017.7C,00002191
2016-03-16 15:54:52 r, 00.00m,0000596153Hz,0000000000c,0000000.000s, 017.4C,00002191
2016-03-16 16:04:52 r, 00.00m,0000596172Hz,0000000000c,0000000.000s, 017.0C,00002191
2016-03-16 16:14:52 r, 00.00m,0000596221Hz,0000000000c,0000000.000s, 017.0C,00002191
2016-03-16 16:24:52 r, 00.00m,0000596176Hz,0000000000c,0000000.000s, 016.7C,00002191
2016-03-16 16:34:52 r, 00.00m,0000596259Hz,0000000000c,0000000.000s, 016.7C,00002191
2016-03-16 16:44:52 r, 00.00m,0000596245Hz,0000000000c,0000000.000s, 016.7C,00002191
2016-03-16 16:54:52 r, 00.00m,0000596128Hz,0000000000c,0000000.000s, 016.7C,00002191
2016-03-16 17:04:52 r, 00.00m,0000596141Hz,0000000000c,0000000.000s, 016.4C,00002191
2016-03-16 17:14:52 r, 00.00m,0000596264Hz,0000000000c,0000000.000s, 016.1C,00002191
2016-03-16 17:24:52 r, 00.00m,0000596239Hz,0000000000c,0000000.000s, 015.7C,00002191
2016-03-16 17:34:52 r, 00.00m,0000596416Hz,0000000000c,0000000.000s, 015.4C,00002191
2016-03-16 17:44:52 r, 00.00m,0000596445Hz,0000000000c,0000000.000s, 015.1C,00002191
2016-03-16 17:54:52 r, 00.00m,0000596457Hz,0000000000c,0000000.000s, 014.8C,00002191
2016-03-16 18:04:52 r, 00.00m,0000596548Hz,0000000000c,0000000.000s, 014.5C,00002191
2016-03-16 18:14:52 r, 00.00m,0000596513Hz,0000000000c,0000000.000s, 014.1C,00002191
2016-03-16 18:24:52 r, 00.00m,0000596562Hz,0000000000c,0000000.000s, 014.1C,00002191
2016-03-16 18:34:52 r, 00.00m,0000596579Hz,0000000000c,0000000.000s, 013.8C,00002191
2016-03-16 18:44:52 r, 00.00m,0000498471Hz,0000000000c,0000000.000s, 013.8C,00002191
2016-03-16 18:54:52 r, 06.33m,0000249270Hz,0000000000c,0000000.000s, 013.8C,00002191
2016-03-16 19:04:52 r, 06.31m,0000253781Hz,0000000000c,0000000.000s, 013.5C,00002191
2016-03-16 19:14:52 r, 06.99m,0000135418Hz,0000000000c,0000000.000s, 013.5C,00002191
2016-03-16 19:24:52 r, 07.81m,0000063332Hz,0000000000c,0000000.000s, 013.5C,00002191
2016-03-16 19:34:53 r, 08.58m,0000031224Hz,0000000000c,0000000.000s, 013.5C,00002191
2016-03-16 19:44:52 r, 09.96m,0000008806Hz,0000000000c,0000000.000s, 013.5C,00002191
2016-03-16 19:54:52 r, 11.50m,0000002135Hz,0000000000c,0000000.000s, 013.5C,00002191
2016-03-16 20:04:52 r, 13.79m,0000000258Hz,0000000000c,0000000.000s, 013.5C,00002191
2016-03-16 20:14:52 r, 15.75m,0000000042Hz,0000010981c,0000000.024s, 013.5C,00002191
2016-03-16 20:24:52 r, 17.19m,0000000011Hz,0000041356c,0000000.090s, 013.5C,00002191
2016-03-16 20:34:54 r, 17.96m,0000000006Hz,0000084261c,0000000.183s, 013.5C,00002191
2016-03-16 20:44:52 r, 18.29m,0000000004Hz,0000113443c,0000000.246s, 013.2C,00002191
2016-03-16 20:54:52 r, 18.18m,0000000004Hz,0000103029c,0000000.224s, 013.2C,00002191
2016-03-16 21:04:52 r, 18.11m,0000000004Hz,0000095802c,0000000.208s, 012.8C,00002191
2016-03-16 21:14:52 r, 18.08m,0000000005Hz,0000094070c,0000000.204s, 012.8C,00002191
2016-03-16 21:24:52 r, 18.03m,0000000006Hz,0000090003c,0000000.195s, 012.5C,00002191
2016-03-16 21:34:52 r, 18.05m,0000000005Hz,0000091059c,0000000.198s, 012.5C,00002191
2016-03-16 21:44:52 r, 18.02m,0000000005Hz,0000089012c,0000000.193s, 012.5C,00002191
2016-03-16 21:54:52 r, 18.05m,0000000005Hz,0000091081c,0000000.198s, 012.5C,00002191
2016-03-16 22:04:52 r, 18.08m,0000000005Hz,0000093251c,0000000.202s, 012.5C,00002191
2016-03-16 22:14:52 r, 18.11m,0000000005Hz,0000096696c,0000000.210s, 012.2C,00002191
2016-03-16 22:24:52 r, 18.02m,0000000005Hz,0000088853c,0000000.193s, 012.2C,00002191
2016-03-16 22:34:52 r, 18.09m,0000000005Hz,0000094628c,0000000.205s, 012.2C,00002191
2016-03-16 22:44:52 r, 18.03m,0000000006Hz,0000089214c,0000000.194s, 012.2C,00002191
2016-03-16 22:54:52 r, 18.08m,0000000005Hz,0000093512c,0000000.203s, 012.2C,00002191
2016-03-16 23:04:52 r, 18.11m,0000000005Hz,0000096129c,0000000.209s, 012.2C,00002191
2016-03-16 23:14:52 r, 18.12m,0000000005Hz,0000097071c,0000000.211s, 012.2C,00002191
2016-03-16 23:24:52 r, 18.21m,0000000004Hz,0000105926c,0000000.230s, 012.2C,00002191
2016-03-16 23:34:52 r, 18.28m,0000000004Hz,0000112328c,0000000.244s, 012.2C,00002191
2016-03-16 23:44:52 r, 18.28m,0000000005Hz,0000112159c,0000000.243s, 012.2C,00002191
2016-03-16 23:54:52 r, 18.30m,0000000004Hz,0000114560c,0000000.249s, 011.9C,00002191
